Location: Unspecified
(44.4377°N, 88.0525°W)
Time: 06:47:33
(UTC-05:00)

Okean 3 - Visible Passes

Search period start: 04 July 2015 00:00
Search period end: 14 July 2015 00:00
Orbit: 579 x 606 km, 82.5° (Epoch: 04 July)

Date Brightness Start Highest point End Pass type
(mag) Time Alt. Az. Time Alt. Az. Time Alt. Az.
04 Jul 5.1 00:52:13 10° NW 00:55:31 22° W 00:55:51 22° W visible
04 Jul 3.9 23:23:25 10° N 23:27:29 47° ENE 23:28:17 41° ESE visible
05 Jul 5.6 01:01:59 10° NW 01:04:27 15° W 01:04:53 15° W visible
05 Jul 3.4 23:32:23 10° N 23:36:35 73° E 23:37:20 57° SE visible
06 Jul 5.8 22:06:47 10° NE 22:07:42 11° ENE 22:08:51 10° E visible
06 Jul 3.5 23:41:28 10° NNW 23:45:40 73° W 23:46:24 57° SSW visible
07 Jul 5.4 22:14:29 10° NNE 22:17:02 16° ENE 22:18:52 13° E visible
07 Jul 4.1 23:50:39 10° NNW 23:54:42 46° W 23:55:28 41° SW visible
08 Jul 5.0 22:22:56 10° NNE 22:26:17 23° ENE 22:27:57 18° ESE visible
08 Jul 4.7 23:59:58 10° NNW 00:03:41 30° W 00:04:33 28° WSW visible
09 Jul 4.4 22:31:39 10° N 22:35:30 34° ENE 22:37:03 26° ESE visible
10 Jul 5.3 00:09:28 10° NW 00:12:39 21° W 00:13:39 19° WSW visible
10 Jul 3.8 22:40:32 10° N 22:44:39 51° ENE 22:46:10 34° SE visible
11 Jul 5.8 00:19:19 10° NW 00:21:35 14° W 00:22:46 12° WSW visible
11 Jul 3.4 22:49:31 10° N 22:53:45 80° E 22:55:17 39° SSE visible
12 Jul 5.7 21:23:26 10° NE 21:24:53 12° ENE 21:26:34 10° E visible
12 Jul 3.6 22:58:36 10° NNW 23:02:48 67° W 23:04:25 36° SSW visible
13 Jul 5.3 21:31:26 10° NNE 21:34:12 17° ENE 21:36:58 11° ESE visible
13 Jul 4.3 23:07:48 10° NNW 23:11:49 43° W 23:13:34 27° SW visible
